リニア彗星

C/2000 WM1 ( LINEAR )

English version
Home page
Total 6,336 html files since Dec. 4, 1995
Updated on June 28, 2003

---------------------------------------------------------------------

・ プロフィール

発見日 2000年11月16日
発見光度 18.0等
発見者 Lincoln Laboratory Near-Earth Asteroid Research project

・ 軌道要素

Epoch 2002 Jan. 6.0 TT = JDT 2452280.5
T 2002 Jan. 22.67305 TT                                 MPC
q   0.5553445            (2000.0)            P               Q
z  -0.0004927      Peri.  276.77162     -0.31491096     -0.49780057
 +/-0.0000010      Node   237.89586     +0.43038395     -0.83374765
e   1.0002736      Incl.   72.55003     -0.84593188     -0.23887118
>From 987 observations 2000 Nov. 16-2001 Dec. 13, mean residual 0".75.

・ 星図

・ 光度変化

        m1 = 8.6 + 5 logΔ +  7.5 log r  [   ,-80]  (              〜2001年11月23日)
        m1 = 3.6 + 5 logΔ + 30   log r  [-80,-61]  (2001年11月 3日〜2001年11月22日)
        m1 = 8.5 + 5 logΔ -  5.0 log r  [-61,-51]  (2001年11月22日〜2001年12月 2日)
        m1 = 7.5 + 5 logΔ +  5.0 log r  [-51,  6]  (2001年12月 2日〜2002年 1月28日)
        m1 = 6.3 + 5 logΔ + 15.0 log r  [  6, 60]  (2002年 1月28日〜2002年 3月23日)
        m1 = 7.0 + 5 logΔ + 10.0 log r  [ 60,100]  (2002年 3月23日〜2002年 5月 2日)
        m1 = 4.7 + 5 logΔ + 18.0 log r  [100,200]  (2002年 5月 2日〜2002年 8月10日)
        m1 = 9.0 + 5 logΔ +  9.5 log r  [200,   ]  (2002年 8月10日〜              )

---------------------------------------------------------------------

軌道要素は Dr. Brian G. Marsden の計算によるもので、 M.P.E.C. 2001-X70 に掲載されたものです。
星図は StellaNavigator Ver.2.0 for Windows (アストロアーツ 編著 / アスキー出版局刊) で作成したものです。
光度グラフはComet for Windowsで作成したものです。

---------------------------------------------------------------------

Copyright(C) 1995-2008 Seiichi Yoshida (comet@aerith.net). All rights reserved.